HULIANWANG DIGUI-124

导读 | 豆包AI

“HULIANWANG DIGUI-124”是中国于2025年12月11日发射的低轨互联网卫星,隶属于“互联网地球”星座系统。该卫星旨在增强全球网络覆盖能力,服务偏远地区网络接入需求,同时承载低轨卫星通信技术验证任务,推动卫星互联网商业化应用,助力构建天地一体的新型信息基础设施。

Basic Information
目录编号:
67064
目录名称:
HULIANWANG DIGUI-124
国际标识:
2025-295F
轨道中心:
EARTH
卫星名称:
HULIANWANG DIGUI-124
卫星全名:
HULIANWANG DIGUI-124
卫星状态:
在轨 (已飞行114 天)
发射日期:
2025-12-11 UTC
国别 :
中国 (CN)
星等 :
--
Orbit Information
数据来源 国际轨道数据 AOE轨道数据
星历时间 2026-04-04T04:06:03+0800
7小时前
查看轨道信息
2026-03-31T17:00:00+0800
3天前
查看轨道信息
半长轴 7527.46km 7527.463km
偏心率 0.0000132 0.0000103
轨道倾角 49.999° 50.000°
近地点辐角 146.653° 174.872°
升交点赤经 292.033° 304.452°
平近点角 213.435° 164.794°
近地点 1149.223km 1149.248km
远地点 1149.423km 1149.404km
周期 108.326分钟 108.326分钟
每日圈数 13.293218 13.293209
Detailed Information
使用方式:
暂无
2D Orbit Map
3D Orbit Map
Orbit Altitude Analysis Chart
Orbit Inclination Analysis Chart
Orbit Comprehensive Analysis Chart
View Comprehensive Chart